Printer-friendly version
Follow the MPC on Twitter Follow the MPC on Facebook The MPC blog
Minor Planet Center

MPEC 2006-W36 : 2006 WS1

The following Minor Planet Electronic Circular may be linked-to from your own Web pages, but must not otherwise be redistributed electronically.

A form allowing access to any MPEC is at the bottom of this page.


Read MPEC 2006-W35 Read MPEC 2006-W37


M.P.E.C. 2006-W36                                Issued 2006 Nov. 20, 19:55 UT

     The Minor Planet Electronic Circulars contain information on unusual
         minor planets and routine data on comets.  They are published
   on behalf of Commission 20 of the International Astronomical Union by the
          Minor Planet Center, Smithsonian Astrophysical Observatory,
                          Cambridge, MA 02138, U.S.A.

             Prepared using the Tamkin Foundation Computer Network

                              MPC@CFA.HARVARD.EDU
          URL http://cfa-www.harvard.edu/iau/mpc.html  ISSN 1523-6714

                                   2006 WS1

Observations:
     K06W01S* C2006 11 19.05865 21 26 42.25 +21 59 05.3          21.0 V EW036G96
     K06W01S  C2006 11 19.06535 21 26 44.05 +21 59 09.1          20.7 V EW036G96
     K06W01S  C2006 11 19.07221 21 26 45.78 +21 59 12.6          20.9 V EW036G96
     K06W01S  C2006 11 19.07897 21 26 47.58 +21 59 16.0          21.2 V EW036G96
     K06W01S  C2006 11 19.08903 21 26 50.17 +21 59 21.4          21.1 V EW036G96
     K06W01S  C2006 11 19.09729 21 26 52.33 +21 59 25.8          21.1 V EW036G96
     K06W01S  C2006 11 19.10548 21 26 54.49 +21 59 30.0          21.0 V EW036G96
     K06W01S  C2006 11 19.11370 21 26 56.58 +21 59 34.3          21.0 V EW036G96
     K06W01S  C2006 11 20.09984 21 31 15.41 +22 07 53.1          20.5 R EW036734
     K06W01S  C2006 11 20.10542 21 31 16.87 +22 07 56.6          21.0 R EW036734
     K06W01S  C2006 11 20.11108 21 31 18.28 +22 07 58.9          20.9 R EW036734
     K06W01S  C2006 11 20.11667 21 31 19.79 +22 08 01.1          20.7 R EW036734
     K06W01S  C2006 11 20.15530 21 31 29.71 +22 08 22.3                 EW036G96
     K06W01S  C2006 11 20.17233 21 31 34.10 +22 08 30.9                 EW036G96
     K06W01S  C2006 11 20.17813 21 31 35.61 +22 08 33.9                 EW036G96
     K06W01S  C2006 11 20.19238 21 31 39.28 +22 08 40.0          22.2 V EW036G96

Observer details:
734 Farpoint Observatory.  Observer D. Tibbets.  0.7-m reflector + CCD.
G96 Mt. Lemmon Survey.  Observers S. M. Larson, A. R. Gibbs.  Measurers
    E. C. Beshore, E. J. Christensen, G. J. Garradd, A. R. Gibbs, A. D. Grauer,
    R. E. Hill, R. A. Kowalski, S. M. Larson, R. H. McNaught.  1.5-m reflector
    + CCD.

Orbital elements:
2006 WS1                                                 Earth MOID = 0.0949 AU
Epoch 2006 Sept. 22.0 TT = JDT 2454000.5                MPC
M  21.51162              (2000.0)            P               Q
n   0.79626164     Peri.  305.27420     -0.06299055     +0.97691626
a   1.1528307      Node   319.56796     -0.78258012     -0.17527821
e   0.5080920      Incl.   18.34523     -0.61935494     +0.12211537
P   1.24           H   19.7           G   0.15           U   9
Residuals in seconds of arc
061119 G96  0.4-  0.3-    061119 G96  0.5+  0.2+    061120 G96  0.6-  0.0
061119 G96  0.4+  0.0     061119 G96  0.2-  0.3+    061120 G96  0.2-  0.5+
061119 G96  0.4-  0.1-    061120 734  0.2-  0.6-    061120 G96  0.1+  0.7+
061119 G96  0.2+  0.2-    061120 734  0.2+  0.2+    061120 G96  0.3+  0.1+
061119 G96  0.1-  0.0     061120 734  0.4-  0.2-
061119 G96  0.0   0.2+    061120 734  0.7+  0.7-

Ephemeris:
2006 WS1                 a,e,i = 1.15, 0.51, 18                  q = 0.5671
Date    TT    R. A. (2000) Decl.     Delta      r     Elong.  Phase     V
2006 11 21    21 35.13   +22 15.2    0.657    1.235    95.3    52.8    21.2
2006 12 01    22 14.44   +23 17.8    0.767    1.308    95.7    48.6    21.5
2006 12 11    22 48.48   +24 01.3    0.885    1.374    94.4    45.6    21.9
2006 12 21    23 18.99   +24 37.8    1.010    1.434    92.0    43.3    22.2

Kyle E. Smalley              (C) Copyright 2006 MPC           M.P.E.C. 2006-W36

Read MPEC 2006-W35 Read MPEC 2006-W37


MPEC number:

Enter an MPEC number in one of the following forms:

  • 1997-B01 (the full form)
  • J97B01 (the packed version of the full form)
  • B01 (the abbreviated form)

Valid HTML 4.01!